Location: Beddau
(51.5575°N, 3.3561°W)
Time: 12:41:37
(UTC+00:00)

SJ 16-02 - Pass Details

Date: 03 March 2021
Orbit: 605 x 617 km, 75.0° (Epoch: 17 April)

Event Time Altitude Azimuth Distance (km) Brightness Sun altitude
Rises 21:11:00 0° 331° (NNW) 2,885 5.6 -29.8°
Reaches altitude 10° 21:13:20 10° 324° (NW) 1,977 4.7 -30.1°
Enters shadow 21:16:29 35° 287° (WNW) 1,005 2.8 -30.5°
